Starlink 30496

operational
NORAD ID: 57919 Int'l Des: 2023-147 Owner: SPXS Country: US Constellation: starlink
LEOCIRCULAR

About Starlink 30496

Description loading...

Live Position

Loading 3D Globe...

Upcoming Passes

Altitude History

Altitude vs Time

uPlot chart will show altitude changes over time

Two-Line Element Set

1 57919U 23147G 25305.97153993 .00000167 00000-0 27427-4 0 9999
2 57919 43.0042 300.2302 0001175 283.3651 76.7060 15.02536569117409
Epoch: Nov 1, 2025 • Age: 33 hours

Current Status

Altitude 571.6 km
Velocity 7.58 km/s
Sub-Earth Point -42.89°S, 40.98°E
Launch Date Sep 24, 2023
Age 2.1 years
Type internet

Technical Details

Classification Payload
Mass 730.00 kg
Dry Mass 700.00 kg
Total Mass 730.00 kg
Length 0.30 m
Diameter 4.10 m
Span 29.00 m
Shape Box + pan
Manufacturer SPXS
Bus Type Starlink V2M
Phase Status In Orbit
Owner/State SPXS/US

Large Constellations

Loading constellations...